User: anonymous   Login
Location: Theydon Bois
(51.6750°N, 0.1050°E)
Time: 16:27:25
(UTC+01:00)
Language:

Geosat - Orbit

View from above orbital plane
View from above orbital plane
View from above satellite
View from above satellite

Ground track
Ground track

The orbit data is extracted from the following two-line orbital elements,

1 15595U 85021A   18168.90260850 -.00000079 +00000-0 +18668-4 0  9995
2 15595 108.0347 134.3772 0001285 266.8262 112.1727 14.38076097742699
Epoch (UTC): 17 June 2018 21:39:45
Eccentricity: 0.0001285
inclination: 108.0347°
perigee height: 764 km
apogee height: 766 km
right ascension of ascending node: 134.3772°
argument of perigee: 266.8262°
revolutions per day: 14.38076097
mean anomaly at epoch: 112.1727°
orbit number at epoch: 74269

The dashed part of the orbit path shows where the satellite is in the earth's shadow,  

DLR